User: anonymous   Login
Location: Sherrills_Ford_Terrell
(35.6000°N, 80.9830°W)
Time: 08:07:26
(UTC-04:00)
Language:

CZ-4B R/B - Orbit

View from above orbital plane
View from above orbital plane
View from above satellite
View from above satellite

Ground track
Ground track

The orbit data is extracted from the following two-line orbital elements,

1 29093U 06015B   16270.06253285  .00006133  00000-0  15611-3 0  9992
2 29093  97.4864   9.2775 0067802 184.9591 175.0990 15.37589583576916
Epoch (UTC): 26 September 2016 01:30:02
Eccentricity: 0.0067802
inclination: 97.4864°
perigee height: 407 km
apogee height: 499 km
right ascension of ascending node: 9.2775°
argument of perigee: 184.9591°
revolutions per day: 15.37589583
mean anomaly at epoch: 175.0990°
orbit number at epoch: 57691

The dashed part of the orbit path shows where the satellite is in the earth's shadow,  

DLR